ECMWFNIL_700_spd_105.txt.gz
Wind_Speed
28 28 29 29 29 28 28 28 28 26 24 22 20 18 17 16 15 15 16 17 18 19 20 21 21 22 22 23 24 24 25 26 27 27 28 29 29 29 30 30 31 31
30 30 31 31 30 29 29 27 25 23 21 19 18 17 16 15 15 16 17 18 19 20 20 20 21 21 22 23 24 24 25 25 26 27 28 28 29 29 30 30 31 32
32 33 32 31 30 29 26 24 22 20 19 18 17 16 16 16 16 17 18 18 19 19 19 20 20 22 23 24 24 25 25 26 27 28 28 29 29 30 31 31 32 33
34 34 33 31 29 26 24 22 20 19 19 18 17 17 16 16 17 18 18 19 19 19 19 20 22 23 24 24 24 25 25 26 27 28 29 30 30 31 31 32 33 34
34 33 31 28 25 23 22 20 19 19 19 18 17 17 17 17 18 18 19 19 19 20 21 22 23 24 24 24 24 25 26 26 27 28 29 30 30 31 32 33 34 35
31 29 27 25 23 21 20 19 20 19 19 18 17 17 18 18 19 19 20 19 20 21 23 24 24 24 24 25 25 26 26 27 28 28 29 30 30 31 32 34 35 36
27 25 24 22 21 20 20 20 20 19 19 18 18 18 19 20 20 20 20 21 22 23 24 24 24 24 25 25 26 27 27 28 29 29 29 30 31 31 33 34 36 37
24 23 21 21 20 20 20 20 20 19 19 19 19 20 20 20 21 21 22 23 23 24 24 24 25 25 26 27 28 28 29 29 29 30 30 30 31 32 34 35 37 39
22 21 20 20 20 21 21 21 20 20 20 21 21 21 21 21 22 23 24 24 24 24 24 25 26 27 28 29 29 29 30 30 30 30 31 31 32 33 35 37 39 40
20 20 20 21 21 21 21 21 21 21 22 22 22 22 22 23 24 25 24 24 25 25 26 27 28 29 30 30 30 30 31 31 32 32 33 33 33 35 36 38 40 42
20 20 21 21 21 21 22 22 22 22 22 23 23 23 24 24 25 25 25 26 26 27 28 29 30 30 31 31 31 32 32 32 33 34 34 34 35 37 38 40 42 43
20 21 21 21 21 22 22 23 23 23 23 24 24 25 25 25 26 26 27 28 28 29 30 30 31 32 32 32 33 33 33 34 34 35 35 36 37 39 40 42 43 44
21 21 21 22 22 23 24 24 25 25 25 25 26 26 27 27 28 28 29 29 30 30 31 32 33 33 33 34 34 34 35 35 36 36 36 37 38 40 41 42 43 44
21 22 23 23 24 25 25 26 26 26 27 27 28 29 29 29 30 30 30 30 31 32 32 33 34 34 34 35 35 35 36 36 36 36 37 38 39 40 41 42 43 44
22 23 24 25 25 26 27 27 28 28 29 30 30 31 31 31 31 31 31 32 32 33 33 34 34 35 36 36 36 36 37 37 37 38 39 40 40 41 41 42 43 44
24 25 25 26 27 27 28 29 30 31 31 32 32 32 32 32 32 32 33 33 33 34 34 35 35 36 37 37 37 37 37 38 38 39 40 41 41 41 42 42 44 46
26 26 27 28 29 29 30 31 31 32 32 33 33 33 33 33 33 34 34 34 34 34 35 36 37 37 37 38 38 39 39 39 39 40 41 42 42 42 43 44 46 47
28 29 30 30 31 31 31 32 33 33 33 34 34 34 34 34 35 35 35 35 35 35 36 37 37 37 38 38 39 40 40 40 41 41 42 42 42 43 44 46 48 49
31 32 32 33 33 33 33 34 34 34 34 35 35 35 35 35 35 35 35 35 36 36 37 37 37 37 38 39 41 41 41 41 41 42 42 42 43 44 46 48 49 50
34 34 34 35 35 35 35 35 35 35 36 36 36 36 36 36 35 35 36 36 36 37 37 37 37 38 39 41 42 41 41 41 42 42 42 42 44 46 47 48 49 49
36 36 37 37 37 37 36 36 36 36 37 37 38 37 36 36 36 36 36 36 37 37 37 37 37 39 41 42 42 41 41 41 42 41 42 43 45 46 47 47 48 49
39 39 39 39 39 38 38 37 37 37 38 38 39 38 37 37 36 36 36 37 37 36 36 37 39 41 42 42 41 40 41 41 41 41 43 44 45 46 46 46 47 48
41 41 41 41 40 40 39 39 38 38 38 39 39 38 38 37 37 37 37 37 36 36 37 39 42 43 42 41 40 41 41 41 41 42 44 45 45 46 46 46 47 48
43 43 43 42 42 41 41 40 40 39 39 39 39 39 38 38 38 38 37 36 36 37 39 42 43 42 40 40 40 42 42 41 42 43 45 45 46 46 46 46 47 47
45 45 45 44 43 43 42 41 41 40 40 40 39 39 38 38 38 38 37 36 37 39 42 43 42 40 39 40 41 42 42 42 43 44 45 46 46 47 47 46 46 45
46 46 46 45 44 44 43 42 42 41 41 40 39 39 39 39 38 37 37 37 39 42 43 42 39 39 40 41 42 42 43 43 44 45 46 47 48 47 46 45 44 44

ECMWFNIL_700_spd_108.txt.gz
Wind_Speed
34 34 33 32 32 31 31 31 30 30 29 29 28 27 28 27 25 23 21 20 19 19 19 19 19 19 19 19 20 21 22 22 23 23 23 23 24 24 25 25 25 26
34 33 33 32 31 31 31 31 31 30 29 28 28 28 28 26 23 22 21 20 20 20 20 20 19 19 19 19 21 22 23 23 23 23 23 23 24 25 25 26 26 26
34 34 34 33 32 32 32 32 32 31 30 29 29 28 26 24 22 22 21 21 21 20 20 19 19 18 19 21 22 23 23 22 22 22 23 24 25 26 26 27 27 27
35 35 35 34 34 34 34 34 32 31 31 30 29 27 25 23 22 22 22 21 21 20 19 18 18 19 21 22 23 22 22 22 22 23 25 26 27 27 28 28 28 29
36 36 36 36 36 36 35 34 33 32 31 30 28 26 24 23 23 22 22 21 20 18 18 18 19 21 22 22 22 22 22 22 24 25 27 27 28 29 29 29 30 30
36 36 37 37 37 37 36 34 33 31 30 28 26 24 23 23 23 22 21 19 18 17 18 19 21 22 22 22 22 22 23 25 26 27 28 29 29 30 30 31 31 31
37 38 38 38 37 36 35 33 31 29 27 26 25 24 24 23 22 21 19 18 18 18 20 22 22 23 22 22 23 24 25 27 28 29 30 30 31 31 31 31 32 33
38 38 38 38 36 34 33 30 28 27 25 25 24 24 23 22 21 20 19 18 19 20 22 23 23 23 23 24 25 26 27 28 29 30 31 32 32 32 32 32 33 34
36 36 36 35 33 31 29 27 25 25 24 25 24 24 23 22 20 19 19 19 20 22 23 23 23 24 24 25 26 27 28 29 31 32 32 32 32 33 33 34 34 35
34 33 32 31 29 27 25 24 24 24 25 25 24 23 22 21 20 19 20 21 22 23 24 24 25 25 26 27 28 29 30 31 32 33 33 33 33 34 34 35 35 36
31 29 27 26 24 23 23 23 24 25 25 24 23 23 22 21 20 21 21 22 23 24 25 25 26 26 27 28 29 30 31 32 33 34 34 34 34 35 36 36 37 37
28 25 24 23 21 21 22 23 24 25 24 24 23 22 22 21 21 22 23 24 24 25 26 26 27 28 29 29 30 31 32 33 34 34 35 35 36 37 37 37 38 38
24 22 21 20 20 22 23 24 24 24 23 23 23 23 22 22 23 23 24 25 25 26 27 28 29 29 30 30 31 32 33 34 34 35 35 36 37 38 38 38 38 39
21 20 20 20 21 22 23 23 24 23 24 24 24 24 23 24 24 24 25 26 26 28 28 29 30 30 31 32 32 33 34 34 35 35 36 37 38 39 39 39 39 40
19 19 20 20 21 22 23 23 24 24 25 24 24 25 24 24 25 26 27 28 28 29 30 30 31 32 32 33 33 34 34 35 35 35 36 37 39 40 40 40 40 40
19 19 20 21 22 23 23 24 24 25 25 25 25 25 25 26 26 28 29 30 30 31 31 32 32 33 33 33 34 34 35 36 35 35 36 38 40 40 40 40 40 40
19 20 21 22 23 23 24 25 25 26 26 26 26 26 26 27 29 30 31 31 32 32 33 33 34 34 34 34 34 35 36 36 35 36 38 40 40 41 40 40 40 40
21 22 23 23 24 24 25 26 26 27 27 27 27 27 28 30 30 31 32 32 33 34 34 35 35 35 35 35 35 36 36 36 36 38 40 40 41 41 40 40 40 40
23 24 24 25 25 26 27 28 28 29 29 29 30 30 31 32 32 32 32 33 34 34 35 36 36 37 36 36 37 36 36 36 38 39 41 41 41 40 40 40 41 41
25 26 26 27 28 28 29 30 31 31 32 32 33 33 33 33 33 33 33 33 34 35 36 37 37 37 37 37 37 37 36 38 39 41 41 41 40 39 40 41 41 41
27 28 29 30 31 31 32 33 33 34 34 35 35 35 35 35 34 34 34 34 35 36 36 37 38 38 38 38 38 37 37 39 41 42 41 40 39 39 40 41 41 42
30 31 32 33 33 34 35 35 36 36 36 37 37 36 36 36 35 35 35 36 36 36 37 37 38 38 39 39 38 38 38 40 42 42 40 39 39 40 40 41 42 43
33 34 35 35 36 36 37 38 38 39 39 39 39 38 38 37 36 36 36 37 37 37 37 38 38 39 39 39 38 38 40 41 42 41 38 38 39 39 40 41 42 43
35 36 37 37 38 39 40 40 41 41 41 41 40 40 39 38 37 37 37 37 37 37 38 38 39 39 40 39 39 39 41 42 41 39 38 38 39 39 40 41 41 42
36 37 38 39 40 41 42 42 43 43 43 42 42 41 40 39 39 38 38 38 38 38 38 39 39 40 40 39 39 40 41 41 38 37 38 38 38 39 40 40 40 40
37 38 39 40 41 42 43 44 44 44 44 43 43 42 41 40 40 39 38 38 38 38 39 39 40 40 40 40 40 41 41 38 37 38 39 38 38 39 40 40 39 39

ECMWFNIL_700_spd_111.txt.gz
Wind_Speed
37 37 37 38 38 38 38 39 39 38 37 35 34 33 32 31 30 30 29 29 29 28 26 24 22 21 20 18 18 18 19 20 21 21 21 21 21 21 22 24 26 29
38 38 39 39 40 40 40 40 39 38 36 35 34 33 32 31 30 29 29 29 29 28 25 23 22 20 19 18 18 19 20 21 22 22 21 21 21 22 24 26 28 30
39 40 40 41 41 41 41 40 39 38 36 35 33 32 31 31 30 29 29 30 29 27 24 23 21 20 19 19 19 20 21 22 22 22 21 21 22 24 26 28 30 31
40 41 41 41 42 42 42 41 39 38 36 35 33 32 31 31 30 30 30 30 28 26 24 23 21 20 19 19 20 21 22 22 22 21 21 22 24 26 27 29 30 31
40 41 41 42 42 42 42 41 39 37 36 35 34 33 32 31 31 31 30 29 27 25 24 23 21 20 20 20 21 22 23 22 21 21 22 24 25 27 28 30 31 32
41 42 42 42 42 42 41 40 39 37 37 36 35 34 33 32 32 31 30 27 26 25 24 22 21 21 21 22 23 23 22 22 21 22 23 25 26 28 29 30 31 32
42 42 43 43 43 42 41 41 39 38 37 37 36 35 33 33 32 30 28 26 25 25 23 22 22 21 22 22 23 22 22 22 23 23 24 25 27 29 30 31 31 32
44 44 44 44 44 43 42 41 40 39 38 37 36 35 34 33 31 29 27 26 25 24 23 22 22 22 22 22 22 22 22 23 24 24 25 26 28 29 30 31 32 32
45 45 45 45 44 44 43 41 40 39 39 38 37 36 34 32 29 27 26 25 25 24 23 22 22 22 22 22 22 23 23 24 24 25 26 27 28 30 31 32 32 33
43 43 43 43 43 43 43 42 41 40 39 38 37 35 32 30 28 26 26 25 24 23 23 22 22 22 22 23 23 24 25 25 25 25 27 28 29 31 32 32 32 33
41 41 40 40 40 40 40 40 39 38 37 36 34 31 29 28 27 26 25 24 24 23 22 22 22 22 23 24 25 26 26 26 26 27 28 29 30 31 32 32 32 33
41 40 39 38 37 36 36 35 35 34 33 32 30 28 27 27 26 25 25 24 23 23 22 22 23 23 24 25 26 27 26 26 27 28 29 30 31 32 32 33 33 34
40 38 37 36 34 33 32 31 31 30 29 28 27 26 26 26 26 25 25 24 23 23 22 23 23 24 25 26 27 27 27 28 29 30 31 31 32 33 33 33 34 36
37 36 35 33 31 30 29 28 28 27 26 26 26 26 26 26 26 25 25 24 23 23 23 24 25 26 26 27 27 27 28 29 30 31 32 32 33 34 34 34 35 37
33 32 31 30 29 28 27 26 26 25 25 25 26 26 26 26 26 25 25 24 24 24 24 25 26 26 27 27 27 28 29 31 32 32 33 33 34 35 35 35 37 38
29 28 28 27 26 25 24 24 24 24 24 25 26 26 27 26 26 25 25 25 25 25 26 26 27 27 27 28 28 30 31 32 32 33 34 34 35 35 36 36 38 39
25 24 24 23 23 23 22 22 23 23 24 25 26 26 26 26 26 26 26 26 26 27 27 27 27 28 28 29 30 30 31 32 33 33 34 34 35 36 36 37 39 40
22 22 21 21 21 21 22 22 23 23 24 25 26 26 27 27 27 27 27 28 28 28 28 28 29 29 29 30 31 32 32 33 33 34 34 34 35 36 37 38 39 40
20 20 20 20 21 21 21 22 23 24 25 26 27 27 28 29 29 29 29 30 30 30 30 30 30 30 31 31 32 33 33 34 34 34 34 35 36 36 37 39 40 40
20 20 20 21 21 21 22 23 24 25 26 27 28 29 30 30 31 31 31 31 31 31 31 31 31 32 32 33 34 34 34 34 34 34 35 35 36 37 38 39 40 39
21 21 21 22 22 23 24 25 26 27 28 29 30 31 32 32 33 33 33 33 33 33 33 33 33 33 33 34 34 35 35 35 35 35 35 36 37 38 39 40 40 38
22 22 23 23 24 25 26 27 28 29 30 31 32 33 34 34 34 35 35 34 34 34 34 34 34 34 34 35 35 35 35 35 36 36 36 37 38 40 40 40 38 35
24 24 25 25 26 27 28 29 30 31 32 33 34 34 35 36 36 36 36 36 36 36 36 35 35 35 35 36 36 36 36 36 36 36 37 38 39 41 40 39 36 33
25 25 26 27 29 30 30 31 32 33 34 35 36 36 37 37 38 38 38 38 38 37 37 37 36 36 36 36 37 37 37 37 37 37 38 39 40 40 38 36 33 32
27 27 28 30 31 32 33 34 34 35 36 37 38 38 39 39 40 40 40 40 39 39 38 38 37 37 37 37 37 37 38 37 37 38 38 39 39 38 35 33 32 32
30 31 31 32 32 33 34 35 36 37 38 39 39 40 40 41 42 42 41 41 40 40 39 38 38 37 37 37 38 38 38 38 39 38 38 38 37 35 32 31 31 31

ECMWFNIL_700_spd_114.txt.gz
Wind_Speed
40 41 41 41 41 42 42 42 42 42 42 42 42 41 40 38 37 37 37 36 35 34 33 31 31 30 29 28 27 26 26 25 23 22 21 21 21 22 22 22 21 22
41 42 42 42 42 42 42 41 42 42 42 42 42 41 40 38 37 38 38 37 35 33 32 31 30 30 29 28 27 26 26 25 23 22 22 22 22 22 22 22 22 23
41 43 43 43 43 42 42 42 42 43 42 43 43 42 40 38 37 38 38 36 34 33 32 31 30 30 29 28 27 27 26 25 23 23 23 23 23 23 22 22 23 24
41 42 42 43 43 43 43 43 44 43 43 43 43 42 40 38 38 39 38 36 34 33 32 31 30 30 29 28 28 27 26 25 23 23 23 23 23 23 22 23 24 25
42 42 42 42 43 43 44 44 44 44 44 44 43 42 41 39 38 39 38 35 33 33 32 31 31 30 29 28 28 27 26 24 24 24 24 24 23 23 23 24 25 26
42 43 43 43 43 44 44 44 44 45 45 44 43 42 41 40 39 39 38 35 33 33 32 32 32 31 29 29 28 27 25 25 25 25 24 24 24 24 24 25 26 27
42 43 43 44 44 44 44 44 45 45 45 44 43 43 42 41 40 39 37 35 33 33 33 33 32 31 29 29 28 27 26 25 25 24 24 24 24 24 25 26 27 29
43 43 44 45 45 45 45 45 45 45 45 45 44 43 42 41 40 38 37 36 35 34 34 33 32 31 30 29 28 27 26 26 25 24 25 25 25 25 26 27 28 29
44 44 45 45 45 46 46 46 46 46 46 45 44 43 43 42 41 39 37 37 36 35 34 33 32 31 30 29 28 27 26 25 25 25 25 25 26 26 27 28 29 30
44 44 44 45 45 46 46 47 47 46 46 45 44 44 43 42 42 40 38 38 37 35 34 32 31 30 30 29 28 27 25 25 25 25 25 26 27 27 28 28 29 30
43 43 44 44 44 45 45 46 46 46 46 46 45 45 44 43 42 41 39 38 36 34 32 31 31 30 30 29 28 26 25 25 25 25 26 27 28 28 28 29 29 30
42 42 43 43 43 43 43 43 43 43 44 44 44 45 45 43 42 40 38 37 35 32 31 31 31 31 30 28 27 26 25 25 26 27 27 28 29 29 29 29 30 31
41 41 42 42 42 42 42 41 40 40 41 41 41 41 41 40 39 38 37 35 33 31 31 31 31 30 29 27 26 26 26 26 27 28 29 29 29 29 29 30 31 31
42 43 43 43 43 43 42 41 40 39 39 39 39 37 36 36 36 36 34 32 31 31 31 31 31 30 28 27 27 27 27 28 29 30 30 30 30 30 30 31 32 32
40 41 42 42 42 42 41 41 40 38 37 37 36 34 33 34 34 33 31 30 30 31 31 31 30 29 28 28 28 28 29 29 30 31 32 31 31 31 31 32 33 33
36 37 37 37 38 38 38 37 36 34 33 34 33 31 31 31 31 30 29 29 30 30 30 30 29 29 29 29 29 30 31 31 32 33 32 32 32 32 33 33 34 34
32 32 33 33 33 34 33 32 31 30 30 31 30 29 29 29 28 28 28 28 29 30 30 30 30 30 30 30 31 32 32 33 33 33 33 33 33 34 34 34 35 35
27 28 29 29 29 29 28 27 27 27 28 28 27 27 27 27 26 26 27 28 30 30 31 31 31 31 32 32 33 33 33 34 34 34 35 35 35 35 35 35 36 36
25 25 25 26 26 25 25 25 25 25 25 25 25 25 25 25 25 26 27 29 30 31 31 32 32 33 33 33 34 34 35 35 36 36 36 36 36 36 36 36 36 36
23 23 23 23 23 22 22 22 22 23 22 22 22 23 23 23 24 26 28 30 31 32 33 33 34 34 34 35 35 36 36 37 37 37 38 37 37 37 37 37 37 37
20 21 20 20 20 20 20 20 20 21 20 21 21 21 22 24 25 27 29 31 32 33 34 35 35 35 36 36 37 37 38 38 39 39 39 38 38 38 38 38 38 38
20 20 19 19 19 19 19 19 19 20 20 21 22 23 24 26 28 29 31 33 34 35 36 37 37 37 37 37 38 38 39 39 40 40 40 39 39 39 39 39 39 39
21 20 20 20 20 20 20 20 20 21 22 23 24 25 26 28 30 31 33 34 36 37 37 38 38 38 38 38 39 40 40 41 41 41 40 40 39 39 40 40 40 40
21 21 21 21 21 21 21 22 22 23 24 25 26 27 29 31 32 34 35 36 37 38 38 39 38 39 39 39 40 41 41 41 41 41 41 40 40 40 41 41 41 41
20 21 23 23 23 23 24 24 25 26 27 28 29 31 32 33 35 36 37 38 39 39 39 39 39 40 40 41 41 42 42 42 42 41 41 41 41 41 41 41 42 41
20 22 23 24 25 26 27 27 28 29 30 31 32 34 35 36 37 38 38 39 39 40 40 40 41 41 41 42 42 42 42 42 42 41 41 41 41 42 42 42 42 39

ECMWFNIL_700_spd_117.txt.gz
Wind_Speed
39 40 40 41 41 41 41 41 42 43 44 44 44 44 44 45 45 44 42 41 39 38 37 36 36 36 36 36 35 34 32 30 29 28 27 26 25 25 24 23 23 22
39 40 41 42 42 42 42 41 42 42 42 43 43 43 44 45 45 44 43 42 41 38 37 37 36 36 37 37 35 34 32 30 30 29 28 27 26 26 25 24 23 23
38 40 41 42 42 42 43 42 42 42 42 43 43 42 43 44 45 44 43 42 41 39 38 37 36 37 37 38 36 34 32 31 31 30 28 28 27 26 26 25 24 23
39 40 41 42 42 43 43 43 43 43 43 44 43 42 44 45 44 44 43 41 40 40 39 38 37 38 38 38 36 34 33 32 31 30 29 28 28 27 26 25 24 24
42 41 41 41 42 43 44 44 44 43 43 44 43 43 45 46 45 44 43 42 40 40 40 39 39 39 38 38 36 35 33 32 31 30 29 28 28 27 26 25 24 24
44 43 42 42 43 44 44 44 44 44 44 44 43 43 45 46 45 44 44 42 41 40 41 41 40 39 39 38 36 34 33 32 31 30 29 29 29 28 27 25 25 25
45 45 45 45 46 46 45 44 44 44 45 44 43 44 45 46 45 45 44 43 42 42 42 42 41 40 39 37 35 34 33 33 31 30 29 30 29 28 26 26 25 25
45 46 46 46 48 48 47 46 44 44 44 44 44 45 45 45 45 44 44 43 43 43 43 42 40 39 38 36 34 34 34 32 31 30 30 30 29 28 26 26 26 25
46 46 47 47 48 49 49 47 46 44 44 44 45 45 45 45 45 44 44 43 43 43 43 41 39 37 36 35 34 34 33 32 31 30 30 30 29 28 27 26 26 25
46 46 47 47 48 49 48 47 46 45 45 45 45 45 45 44 44 44 44 44 43 43 42 40 37 35 35 34 34 34 33 32 31 31 31 31 29 28 27 26 26 26
44 44 44 44 45 46 47 46 46 45 45 45 45 45 44 44 44 44 44 44 43 42 41 39 37 35 35 34 34 34 33 32 32 32 32 30 29 28 27 26 27 28
41 40 39 40 41 43 45 45 45 45 44 45 45 44 44 43 44 44 44 44 43 42 41 39 38 36 36 35 34 33 33 32 32 32 31 30 29 28 27 28 28 29
38 37 36 37 39 41 43 44 44 44 44 44 44 44 44 43 43 43 44 43 43 43 42 40 39 38 37 36 34 33 32 32 32 32 31 30 29 29 29 29 30 30
39 38 38 38 39 41 42 43 43 44 44 44 44 44 43 43 43 43 43 43 42 43 42 40 39 38 36 35 33 32 32 32 32 32 31 30 30 30 30 31 31 32
39 40 40 40 41 42 43 43 44 44 44 44 43 43 43 42 42 42 42 42 41 41 41 38 36 35 34 33 32 31 31 32 32 31 31 31 31 32 32 32 32 33
35 36 38 39 40 41 41 41 42 42 42 42 42 42 41 40 40 41 41 40 37 36 36 35 32 32 32 31 31 31 31 32 32 32 32 33 33 33 34 34 34 34
28 30 31 33 34 36 37 37 37 37 37 37 38 38 39 38 38 38 38 37 34 32 32 31 30 30 30 30 31 31 32 33 33 33 34 34 34 35 35 35 35 35
24 25 26 27 29 30 32 32 32 33 32 32 33 33 34 35 35 34 34 33 32 30 28 27 27 28 29 29 30 31 32 33 34 34 34 35 36 36 36 36 36 36
21 22 22 23 25 26 27 28 28 29 28 28 28 29 30 31 31 30 29 29 28 25 24 24 26 27 28 29 31 32 33 34 35 35 36 37 38 38 37 37 37 38
20 20 20 20 21 23 24 24 25 24 24 24 24 25 25 26 25 24 24 23 22 22 22 23 25 27 28 30 31 33 34 35 36 37 38 39 39 38 38 37 38 39
18 18 18 18 19 19 20 21 21 20 20 20 20 20 20 20 20 19 19 19 20 20 22 23 25 27 29 31 33 35 36 37 38 38 39 40 39 38 38 39 40 41
17 17 16 16 17 18 18 18 18 17 17 16 16 16 17 17 17 18 18 19 20 21 22 24 27 29 31 33 35 36 37 38 39 40 40 39 39 39 40 40 41 42
16 16 16 16 16 17 18 17 17 17 16 16 16 16 17 17 18 18 19 20 21 23 25 27 29 31 33 35 36 37 38 39 39 39 39 40 40 41 41 42 43 43
16 15 14 14 15 16 18 18 18 18 17 17 18 18 19 19 20 21 22 23 24 26 28 30 32 34 35 36 37 38 39 39 40 40 41 41 42 42 43 43 44 44
15 14 14 13 14 15 17 18 20 20 20 21 21 22 22 22 23 24 25 26 27 29 30 32 33 35 36 37 38 39 39 41 42 42 43 43 43 44 44 45 45 44
18 18 18 18 19 20 20 21 23 24 24 25 25 25 25 25 26 26 27 28 29 30 32 34 35 36 37 38 39 40 41 42 43 43 44 44 44 45 45 45 45 44

ECMWFNIL_700_spd_123.txt.gz
Wind_Speed
34 34 34 34 33 32 32 33 33 32 31 30 29 27 26 26 27 29 31 32 33 34 35 35 36 36 37 37 37 37 36 36 36 36 36 36 35 34 32 32 31 30
34 34 33 33 33 32 33 33 33 33 31 30 29 27 26 26 27 28 30 31 33 34 34 35 36 36 36 36 36 36 36 35 35 35 36 36 35 34 33 32 33 32
35 34 34 34 33 32 32 33 34 34 32 31 30 29 29 29 29 30 30 31 32 33 34 35 35 36 37 37 36 36 35 34 34 34 35 35 34 33 33 34 34 33
38 37 36 35 35 33 33 34 34 34 34 33 32 32 32 32 33 33 33 34 34 34 35 36 36 36 37 37 37 36 36 34 34 34 34 33 33 33 34 35 35 34
41 40 39 38 36 35 35 34 34 34 34 35 35 35 35 35 35 36 37 37 37 37 37 38 38 37 37 38 37 37 36 35 34 34 34 33 33 33 34 35 36 35
45 44 42 40 39 38 37 36 35 35 36 36 37 38 38 38 37 37 38 39 40 40 40 40 41 40 39 38 38 38 37 36 36 35 34 34 33 34 34 35 36 36
48 46 45 43 42 41 40 39 38 38 38 39 40 40 40 40 39 38 38 39 41 41 41 42 43 42 41 39 38 38 37 37 37 36 35 34 34 35 35 36 36 36
49 48 47 46 45 44 43 41 41 40 40 41 42 42 42 42 41 39 40 41 42 42 43 45 45 44 41 40 38 37 37 36 36 36 36 35 35 36 36 36 37 37
49 49 48 48 47 46 44 43 42 41 41 42 42 43 43 42 42 41 41 41 42 43 44 46 47 45 41 39 38 37 35 35 36 36 36 35 35 36 37 37 37 37
43 44 45 46 46 45 44 43 42 42 42 42 42 42 43 42 43 42 42 41 42 44 45 47 48 44 41 39 38 36 35 34 35 36 36 35 35 36 37 37 37 37
35 36 37 40 41 42 43 43 43 43 43 43 43 43 43 43 43 43 43 43 43 44 45 46 46 42 40 39 38 36 35 34 34 35 35 35 35 36 36 37 37 37
32 32 33 34 35 38 39 41 42 42 43 43 43 43 44 44 44 44 44 44 43 43 43 43 42 40 39 39 37 36 35 34 34 34 34 34 34 34 35 36 36 35
30 32 33 34 34 36 37 39 40 41 42 43 43 44 45 44 44 44 43 43 42 40 39 39 39 39 39 38 38 37 35 34 34 34 33 32 32 32 33 34 34 34
28 29 31 32 33 34 35 36 38 38 40 41 41 43 43 43 43 42 40 40 39 37 37 36 37 39 39 39 39 36 32 33 35 34 33 31 30 32 33 34 35 34
26 27 28 29 29 30 31 32 33 34 35 36 37 38 39 39 40 39 39 38 37 36 36 36 37 39 39 39 38 33 31 35 36 32 31 32 32 34 36 36 36 35
25 25 26 26 27 27 28 28 29 30 31 32 33 33 34 35 35 36 36 35 35 35 35 36 37 38 38 37 34 30 31 34 32 28 32 35 36 36 38 39 38 36
23 24 24 24 25 25 25 26 27 28 29 29 30 31 32 33 33 33 33 32 33 33 33 34 34 34 34 31 27 31 35 34 28 28 32 34 33 34 35 37 37 36
22 22 22 22 23 23 24 25 25 26 27 28 29 29 30 31 31 30 30 29 29 29 29 29 28 28 28 24 24 31 35 31 27 28 30 31 31 32 31 33 34 34
22 22 22 22 23 23 23 24 24 25 26 27 28 29 29 29 29 28 27 26 26 25 24 23 23 23 22 23 25 26 27 28 29 31 32 34 34 34 31 30 30 31
23 23 22 22 22 21 21 22 23 24 25 25 26 27 27 27 27 25 24 22 22 21 18 16 17 17 19 25 29 25 22 28 34 35 37 38 37 36 32 28 28 28
24 23 21 21 21 21 22 23 24 25 25 25 25 25 25 24 23 22 20 19 18 17 14 13 13 14 17 22 24 21 21 27 34 36 38 39 38 36 31 28 27 28
25 24 23 23 23 24 25 26 26 25 24 23 21 20 20 19 18 17 16 15 15 15 15 15 16 17 18 19 21 20 21 24 29 33 35 35 33 31 28 27 28 29
27 26 25 25 25 26 26 25 25 24 22 20 18 16 16 17 17 17 17 17 18 18 19 20 21 22 22 22 23 22 22 24 27 29 30 29 28 27 27 28 30 31
27 26 26 26 26 25 25 24 23 23 22 20 19 19 20 22 22 23 23 22 22 22 22 23 24 24 24 24 24 22 23 26 27 27 27 27 28 29 30 31 32 34
28 28 27 26 26 25 25 24 24 24 22 21 20 22 24 25 25 25 25 25 25 24 24 23 24 24 24 24 24 23 24 26 27 28 28 29 31 32 32 33 34 36
30 30 29 28 27 27 25 25 24 24 24 23 23 23 24 24 25 25 25 25 24 24 24 23 22 22 22 23 23 24 25 27 28 29 30 30 31 32 33 34 35 35